When you browse on this site, cookies collect data to enhance your experience and personalize the content and advertising you see.
Visit our Privacy Policy to learn more. By continuing to use the site, you agree to this use of cookies and data.
  • In Germany
  • List of Countries
  • For 7 days
  • Water Temperature
  • Weather Map
  • Weather Widgets
  • user-avatar
    Login

    Hourly Weather Satif

    Today, 14 December, Saturday

    Time Temperature Precipitation Wind Pressure Humidity
    00:00 +7°C° 0 mm 3 mps 668 mmHg 85%
    01:00 +5°C° 0 mm 3 mps 668 mmHg 86%
    02:00 +5°C° 0 mm 3 mps 668 mmHg 86%
    03:00 +5°C° 0 mm 3 mps 668 mmHg 86%
    04:00 +5°C° 0 mm 3 mps 669 mmHg 87%
    05:00 +6°C° 0 mm 2 mps 669 mmHg 88%
    06:00 +6°C° 0 mm 2 mps 670 mmHg 89%
    07:00 +7°C° 0 mm 2 mps 671 mmHg 84%
    08:00 +8°C° 0 mm 2 mps 671 mmHg 80%
    09:00 +9°C° 0 mm 2 mps 672 mmHg 75%
    10:00 +12°C° 0 mm 2 mps 672 mmHg 70%
    11:00 +13°C° 0 mm 2 mps 672 mmHg 65%
    12:00 +14°C° 0 mm 2 mps 672 mmHg 60%
    13:00 +14°C° 0 mm 2 mps 673 mmHg 60%
    14:00 +14°C° 0 mm 1 mps 673 mmHg 59%
    15:00 +14°C° 0 mm 1 mps 673 mmHg 58%
    16:00 +13°C° 0 mm 1 mps 673 mmHg 65%
    17:00 +11°C° 0 mm 1 mps 672 mmHg 71%
    18:00 +9°C° 0 mm 0 mps 672 mmHg 78%
    19:00 +10°C° 0 mm 1 mps 672 mmHg 77%
    20:00 +10°C° 0 mm 1 mps 672 mmHg 76%
    21:00 +9°C° 0 mm 2 mps 673 mmHg 75%
    22:00 +8°C° 0 mm 2 mps 672 mmHg 76%
    23:00 +8°C° 0 mm 2 mps 672 mmHg 77%

    Tomorrow, 15 December, Sunday

    Time Temperature Precipitation Wind Pressure Humidity
    00:00 +8°C° 0 mm 3 mps 672 mmHg 78%
    01:00 +7°C° 0 mm 2 mps 672 mmHg 79%
    02:00 +7°C° 0 mm 2 mps 671 mmHg 79%
    03:00 +7°C° 0 mm 2 mps 671 mmHg 80%
    04:00 +6°C° 0 mm 2 mps 671 mmHg 80%
    05:00 +6°C° 0 mm 2 mps 671 mmHg 80%
    06:00 +6°C° 0 mm 2 mps 671 mmHg 80%
    07:00 +8°C° 0 mm 2 mps 672 mmHg 75%
    08:00 +9°C° 0 mm 2 mps 672 mmHg 70%
    09:00 +10°C° 0 mm 3 mps 673 mmHg 65%
    10:00 +12°C° 0 mm 3 mps 673 mmHg 59%
    11:00 +13°C° 0 mm 3 mps 673 mmHg 52%
    12:00 +14°C° 0 mm 3 mps 673 mmHg 45%
    13:00 +14°C° 0 mm 3 mps 673 mmHg 46%
    14:00 +14°C° 0 mm 3 mps 673 mmHg 48%
    15:00 +14°C° 0 mm 3 mps 673 mmHg 50%
    16:00 +13°C° 0 mm 3 mps 672 mmHg 55%
    17:00 +11°C° 0 mm 3 mps 672 mmHg 61%
    18:00 +10°C° 0 mm 2 mps 671 mmHg 66%
    19:00 +9°C° 0 mm 3 mps 671 mmHg 67%
    20:00 +9°C° 0 mm 3 mps 671 mmHg 68%
    21:00 +8°C° 0 mm 3 mps 671 mmHg 69%
    22:00 +8°C° 0 mm 3 mps 671 mmHg 70%
    23:00 +8°C° 0 mm 3 mps 671 mmHg 71%

    Day after tomorrow, 16 December, Monday

    Time Temperature Precipitation Wind Pressure Humidity
    00:00 +8°C° 0 mm 3 mps 671 mmHg 71%
    01:00 +8°C° 0 mm 3 mps 670 mmHg 73%
    02:00 +7°C° 0 mm 3 mps 670 mmHg 75%
    03:00 +7°C° 0 mm 3 mps 670 mmHg 76%
    04:00 +7°C° 0 mm 3 mps 669 mmHg 77%
    05:00 +7°C° 0 mm 3 mps 669 mmHg 77%
    06:00 +5°C° 0 mm 3 mps 669 mmHg 78%
    07:00 +7°C° 0 mm 4 mps 670 mmHg 73%
    08:00 +8°C° 0 mm 5 mps 670 mmHg 69%
    09:00 +9°C° 0 mm 6 mps 671 mmHg 64%
    10:00 +10°C° 0 mm 7 mps 670 mmHg 61%
    11:00 +10°C° 0 mm 9 mps 670 mmHg 58%
    12:00 +11°C° 0 mm 10 mps 670 mmHg 55%
    13:00 +11°C° 0 mm 10 mps 669 mmHg 57%
    14:00 +10°C° 0 mm 9 mps 668 mmHg 59%
    15:00 +10°C° 0 mm 9 mps 668 mmHg 61%
    16:00 +9°C° 0 mm 8 mps 667 mmHg 65%
    17:00 +8°C° 0 mm 7 mps 667 mmHg 69%
    18:00 +7°C° 0 mm 5 mps 667 mmHg 73%
    19:00 +7°C° 0 mm 6 mps 667 mmHg 72%
    20:00 +7°C° 0 mm 6 mps 667 mmHg 72%
    21:00 +7°C° 0 mm 6 mps 667 mmHg 71%
    22:00 +6°C° 0 mm 7 mps 667 mmHg 70%
    23:00 +6°C° 0 mm 7 mps 667 mmHg 69%

    17 December, Tuesday

    Time Temperature Precipitation Wind Pressure Humidity
    00:00 +6°C° 0 mm 8 mps 666 mmHg 68%
    01:00 +6°C° 0 mm 7 mps 666 mmHg 70%
    02:00 +7°C° 0 mm 6 mps 666 mmHg 71%
    03:00 +6°C° 0 mm 5 mps 665 mmHg 73%
    04:00 +6°C° 0 mm 4 mps 665 mmHg 73%
    05:00 +6°C° 0 mm 4 mps 665 mmHg 74%
    06:00 +7°C° 0 mm 3 mps 664 mmHg 74%
    07:00 +7°C° 0 mm 4 mps 664 mmHg 69%
    08:00 +8°C° 0 mm 4 mps 665 mmHg 64%
    09:00 +9°C° 0 mm 5 mps 665 mmHg 59%
    10:00 +11°C° 0 mm 6 mps 665 mmHg 52%
    11:00 +12°C° 0 mm 8 mps 664 mmHg 46%
    12:00 +15°C° 0 mm 9 mps 664 mmHg 39%
    13:00 +15°C° 0 mm 9 mps 663 mmHg 40%
    14:00 +13°C° 0 mm 9 mps 663 mmHg 41%
    15:00 +13°C° 0 mm 8 mps 662 mmHg 42%
    16:00 +13°C° 0 mm 6 mps 662 mmHg 44%
    17:00 +11°C° 0 mm 4 mps 662 mmHg 47%
    18:00 +10°C° 0 mm 3 mps 661 mmHg 50%
    19:00 +10°C° 0 mm 2 mps 661 mmHg 53%
    20:00 +9°C° 0 mm 2 mps 661 mmHg 57%
    21:00 +8°C° 0 mm 2 mps 661 mmHg 60%
    22:00 +8°C° 0.7 mm 3 mps 660 mmHg 70%
    23:00 +7°C° 0.7 mm 3 mps 660 mmHg 79%

    18 December, Wednesday

    Time Temperature Precipitation Wind Pressure Humidity
    00:00 +7°C° 0.7 mm 3 mps 660 mmHg 88%
    01:00 +5°C° 3.2 mm 3 mps 660 mmHg 89%
    02:00 +4°C° 3.2 mm 4 mps 659 mmHg 90%
    03:00 +4°C° 3.2 mm 4 mps 659 mmHg 92%
    04:00 +3°C° 3.9 mm 4 mps 659 mmHg 93%
    05:00 +3°C° 3.9 mm 4 mps 660 mmHg 94%
    06:00 +1°C° 3.9 mm 4 mps 660 mmHg 94%
    07:00 +2°C° 2.6 mm 6 mps 661 mmHg 93%
    08:00 +2°C° 2.6 mm 8 mps 661 mmHg 91%
    09:00 +4°C° 2.6 mm 11 mps 662 mmHg 89%
    10:00 +3°C° 2.7 mm 10 mps 663 mmHg 89%
    11:00 +3°C° 2.7 mm 10 mps 663 mmHg 89%
    12:00 +3°C° 2.7 mm 9 mps 664 mmHg 89%
    13:00 +3°C° 0.2 mm 9 mps 665 mmHg 86%
    14:00 +3°C° 0.2 mm 9 mps 665 mmHg 83%
    15:00 +3°C° 0.2 mm 9 mps 666 mmHg 81%
    16:00 +2°C° 0 mm 8 mps 666 mmHg 83%
    17:00 +3°C° 0 mm 6 mps 667 mmHg 84%
    18:00 +2°C° 0 mm 5 mps 668 mmHg 86%
    19:00 +3°C° 0 mm 4 mps 668 mmHg 87%
    20:00 +2°C° 0 mm 3 mps 669 mmHg 87%
    21:00 +2°C° 0 mm 3 mps 669 mmHg 88%
    22:00 +2°C° 0 mm 2 mps 670 mmHg 88%
    23:00 +2°C° 0 mm 2 mps 670 mmHg 89%

    19 December, Thursday

    Time Temperature Precipitation Wind Pressure Humidity
    00:00 +2°C° 0 mm 2 mps 670 mmHg 89%
    01:00 +2°C° 0 mm 2 mps 670 mmHg 86%
    02:00 +1°C° 0 mm 2 mps 670 mmHg 84%
    03:00 +1°C° 0 mm 2 mps 670 mmHg 82%
    04:00 +1°C° 0 mm 2 mps 670 mmHg 77%
    05:00 +2°C° 0 mm 2 mps 670 mmHg 73%
    06:00 +2°C° 0 mm 2 mps 670 mmHg 69%
    07:00 +3°C° 0 mm 2 mps 671 mmHg 62%
    08:00 +5°C° 0 mm 2 mps 672 mmHg 56%
    09:00 +7°C° 0 mm 2 mps 672 mmHg 50%
    10:00 +8°C° 0 mm 2 mps 672 mmHg 47%
    11:00 +9°C° 0 mm 2 mps 672 mmHg 45%
    12:00 +12°C° 0 mm 2 mps 672 mmHg 42%
    13:00 +12°C° 0 mm 2 mps 672 mmHg 46%
    14:00 +12°C° 0 mm 2 mps 672 mmHg 50%
    15:00 +11°C° 0 mm 3 mps 672 mmHg 54%
    16:00 +9°C° 0 mm 2 mps 671 mmHg 58%
    17:00 +8°C° 0 mm 2 mps 671 mmHg 62%
    18:00 +7°C° 0 mm 2 mps 671 mmHg 66%
    19:00 +7°C° 0 mm 2 mps 671 mmHg 67%
    20:00 +6°C° 0 mm 2 mps 671 mmHg 69%
    21:00 +6°C° 0 mm 2 mps 671 mmHg 71%
    22:00 +5°C° 0 mm 3 mps 671 mmHg 72%
    23:00 +5°C° 0 mm 3 mps 671 mmHg 73%
    Show more